Location: Helsinki
(60.1699°N, 24.9384°E)
Time: 23:10:21
(UTC+02:00)

Altair - Pass Details

Date: 01 November 2020
Orbit: 1502 x 1682 km, 47.2° (Epoch: 25 November)

Event Time Altitude Azimuth Distance (km) Brightness Sun altitude
Rises 06:18:12 0° 238° (WSW) 4,659 9.6 -10.8°
Reaches altitude 10° 06:21:29 10° 230° (SW) 3,695 9.1 -10.4°
Maximum altitude 06:29:40 36° 169° (S) 2,283 8.7 -9.4°
Drops below altitude 10° 06:38:06 10° 107° (ESE) 3,816 11.3 -8.4°
Sets 06:41:34 0° 100° (E) 4,829 12.5 -8.0°
